Regional Weather Roundup
Issued by NWS

Home | Current Version | Previous Version | Text Only | Print | Product List | Glossary Off
Versions: 1 2 3 4 5 6 7 8 9 10 11 12 13 14 15 16 17 18 19 20 21 22 23 24 25 26 27 28 29 30 31 32 33 34 35 36 37 38 39 40 41 42 43 44 45 46 47 48 49 50

073
ASUS43 KOAX 120702
RWRNE

WEATHER ROUNDUP FOR NEBRASKA
NATIONAL WEATHER SERVICE OMAHA NE
100 AM CST FRI FEB 12 2016

NOTES: SATELLITE DATA IS BEING USED TO AUGMENT CLOUD COVER ABOVE
       12000 FEET.
       "FAIR" INDICATES FEW OR NO CLOUDS BELOW 12,000 FEET WITH NO
       SIGNIFICANT WEATHER AND/OR OBSTRUCTIONS TO VISIBILITY.

  * THESE STATIONS DO NOT REPORT WEATHER SUCH AS RAIN...SNOW OR FOG.

NEZ001>004-019>022-054>056-120800-
NEBRASKA PANHANDLE

CITY           SKY/WX    TMP DP  RH WIND       PRES   REMARKS
SCOTTSBLUFF    CLOUDY    31  26  82 N6        30.24S WCI  25
ALLIANCE       PTCLDY    30  27  88 W6        30.22R WCI  24
CHADRON        CLOUDY    26  23  88 W3        30.26R
KIMBALL        CLEAR     34  27  76 W9        30.24F WCI  27
SIDNEY         CLEAR     31  26  82 NW12      30.23S WCI  22
$$

NEZ057>060-069>072-079>082-120800-
SOUTHWEST NEBRASKA

CITY           SKY/WX    TMP DP  RH WIND       PRES   REMARKS
NORTH PLATTE   CLOUDY    32  27  81 W7        30.22S WCI  26
IMPERIAL       CLOUDY    32  27  81 N8        30.23S WCI  25
MCCOOK         CLOUDY    33  28  81 SW9       30.23R WCI  25
$$

NEZ005>010-023>029-035>040-094-120800-
NORTH CENTRAL NEBRASKA

CITY           SKY/WX    TMP DP  RH WIND       PRES   REMARKS
VALENTINE      CLOUDY    30  27  88 NW5       30.23S WCI  25
AINSWORTH      CLOUDY    30  28  92 NW5       30.23S WCI  25
BROKEN BOW     CLOUDY    32  29  88 N12       30.21F WCI  23
ORD            CLOUDY    29  25  85 NW13      30.23R WCI  19
$$

NEZ041-046>049-061>064-073>077-083>087-120800-
SOUTH CENTRAL NEBRASKA

CITY           SKY/WX    TMP DP  RH WIND       PRES   REMARKS
GRAND ISLAND   MOCLDY    30  25  81 N15       30.24R WCI  19
HASTINGS       CLOUDY    31  27  85 N17       30.21F WCI  19
HEBRON         PTCLDY    31  28  89 N13       30.20S WCI  21
KEARNEY *      MOCLDY    30  28  93 N9        30.22R WCI  22
$$

NEZ011>018-030>034-042>045-120800-
NORTHEAST NEBRASKA

CITY           SKY/WX    TMP DP  RH WIND       PRES   REMARKS
NORFOLK        CLOUDY    27  23  85 NW9       30.22S WCI  18
BLAIR          CLOUDY    23  20  89 N3        30.22R
COLUMBUS *     CLOUDY    27  18  69 NW9       30.23S WCI  17
FREMONT        CLOUDY    23  19  85 CALM      30.23S
TEKAMAH        CLOUDY    21  18  88 NW5       30.25S WCI  15
$$

NEZ050>053-065>068-078-088>093-120800-
SOUTHEAST NEBRASKA

CITY           SKY/WX    TMP DP  RH WIND       PRES   REMARKS
LINCOLN        CLOUDY    29  25  85 N5        30.22F FOG     WCI  24
OMAHA EPPLEY   CLOUDY    24  20  84 N8        30.24S WCI  15
BEATRICE       CLOUDY    29  27  90 CALM      30.20R
FALLS CITY     CLOUDY    31  22  69 NE6       30.20S WCI  25
NEBRASKA CITY  CLOUDY    30  26  85 N5        30.20F WCI  25
$$

NEZ044-045-051>053-067-120800-
OMAHA AREA

CITY           SKY/WX    TMP DP  RH WIND       PRES   REMARKS
OMAHA EPPLEY   CLOUDY    24  20  84 N8        30.24S WCI  15
BLAIR          CLOUDY    23  20  89 N3        30.22R
FREMONT        CLOUDY    23  19  85 CALM      30.23S
OFFUTT AFB     CLOUDY    26  20  80 N6        30.22S WCI  19
WAHOO          CLOUDY    26  24  89 N3        30.22S
$$




USA.gov is the U.S. government's official web portal to all federal, state and local government web resources and services.